Weather History for Eagle River, WI

Change the Weather History Date:

Saturday, October 5, 2013

  Actual Average Record
Temperature  
Mean Temperature 52 °F -  
Max Temperature 54 °F 57 °F 78 °F (2011)
Min Temperature 50 °F 35 °F 21 °F (2003)
Degree Days  
Heating Degree Days 13    
Growing Degree Days 2 (Base 50)    
Moisture  
Dew Point 52 °F    
Average Humidity 99    
Maximum Humidity 100    
Minimum Humidity 97    
Precipitation  
Precipitation 0.93 in - - ()
Sea Level Pressure  
Sea Level Pressure 29.92 in    
Wind  
Wind Speed 11 mph (East)    
Max Wind Speed 15 mph    
Max Gust Speed 24 mph    
Visibility 7 miles    
Events Rain    
Averages and records for this station are not official NWS values.
T = Trace of Precipitation, MM = Missing Value Source: NWS Daily Summary

Daily Weather History Graph

Daily Weather History Graph

Search for Another Location

Airport:

Trip Planner

Search our weather history database for the weather conditions in past years. The results will help you decide how hot, cold, wet, or windy it might be!

Date:

Astronomy

Oct. 05, 2013 Rise Set
Actual Time 7:00 AM CDT 6:29 PM CDT
Civil Twilight 6:31 AM CDT 6:58 PM CDT
Nautical Twilight 5:56 AM CDT 7:33 PM CDT
Astronomical Twilight 5:21 AM CDT 8:08 PM CDT
Moon 7:44 AM CDT (10/5) 6:42 PM CDT (10/5)
Length of Visible Light 12h 27m
Length of Day
11h 28m
New Moon, 1% of the Moon is Illuminated
Oct 5
New Moon
Oct 11
First Quarter
Oct 18
Full
Oct 26
Last Quarter
Nov 3
New

Hourly Weather History & Observations

Time (CDT) Temp. Dew Point Humidity Pressure Visibility Wind Dir Wind Speed Gust Speed Precip Events Conditions
12:15 AM 50.9 °F 50.2 °F 97% 30.07 in 10.0 mi East 10.4 mph - N/A   Drizzle
12:35 AM 50.5 °F 50.0 °F 98% 30.05 in 7.0 mi East 11.5 mph - N/A   Light Drizzle
12:55 AM 50.5 °F 50.0 °F 98% 30.04 in 10.0 mi East 9.2 mph 16.1 mph N/A   Light Drizzle
1:15 AM 50.9 °F 50.0 °F 97% 30.03 in 10.0 mi East 15.0 mph 18.4 mph N/A   Drizzle
1:35 AM 50.7 °F 50.0 °F 97% 30.04 in 7.0 mi East 11.5 mph 17.3 mph 0.01 in Rain Rain
1:55 AM 50.5 °F 50.4 °F 99% 30.04 in 7.0 mi East 10.4 mph - 0.07 in Rain Rain
2:15 AM 50.9 °F 50.5 °F 99% 30.05 in 10.0 mi ESE 8.1 mph 16.1 mph 0.02 in Rain Rain
2:35 AM 50.9 °F 50.9 °F 100% 30.04 in 5.0 mi ESE 12.7 mph - 0.06 in Rain Rain
2:55 AM 50.9 °F 50.9 °F 100% 30.03 in 7.0 mi ESE 6.9 mph - 0.14 in Rain Rain
3:15 AM 50.9 °F 50.9 °F 100% 30.04 in 10.0 mi ESE 9.2 mph - 0.01 in Rain Light Rain
3:35 AM 50.9 °F 50.9 °F 100% 30.02 in 10.0 mi East 9.2 mph - 0.03 in Rain Rain
3:55 AM 50.9 °F 50.9 °F 100% 30.02 in 10.0 mi East 10.4 mph - 0.07 in Rain Rain
4:15 AM 51.1 °F 50.9 °F 99% 30.01 in 10.0 mi East 11.5 mph 17.3 mph 0.03 in Rain Rain
4:35 AM 50.9 °F 50.9 °F 100% 30.00 in 10.0 mi East 12.7 mph 17.3 mph 0.07 in Rain Rain
4:55 AM 50.9 °F 50.9 °F 100% 29.99 in 10.0 mi East 15.0 mph 23.0 mph 0.11 in Rain Rain
5:15 AM 50.9 °F 50.9 °F 100% 30.00 in 10.0 mi ESE 13.8 mph - 0.02 in Rain Rain
5:35 AM 50.9 °F 50.9 °F 100% 29.96 in 10.0 mi East 15.0 mph 21.9 mph 0.07 in Rain Rain
5:55 AM 50.9 °F 50.9 °F 100% 29.96 in 10.0 mi ESE 13.8 mph 21.9 mph 0.08 in Rain Light Rain
6:15 AM 51.1 °F 50.9 °F 99% 29.97 in 10.0 mi East 10.4 mph 16.1 mph N/A   Overcast
6:35 AM 51.1 °F 50.9 °F 99% 29.95 in 10.0 mi East 12.7 mph 18.4 mph N/A   Overcast
6:55 AM 51.1 °F 50.9 °F 99% 29.96 in 10.0 mi ESE 12.7 mph 24.2 mph N/A   Overcast
7:15 AM 51.1 °F 50.9 °F 99% 29.97 in 10.0 mi ESE 12.7 mph 19.6 mph N/A   Overcast
7:35 AM 51.1 °F 50.9 °F 99% 29.97 in 10.0 mi East 11.5 mph 17.3 mph N/A   Overcast
7:55 AM 51.1 °F 51.1 °F 100% 29.97 in 10.0 mi ESE 11.5 mph 20.7 mph N/A   Overcast
8:15 AM 50.9 °F 50.9 °F 100% 29.96 in 10.0 mi East 11.5 mph 18.4 mph N/A   Overcast
8:35 AM 51.1 °F 51.1 °F 100% 29.95 in 4.0 mi East 13.8 mph 19.6 mph N/A   Overcast
8:55 AM 51.1 °F 51.1 °F 100% 29.95 in 1.8 mi East 10.4 mph 16.1 mph N/A   Overcast
9:15 AM 51.3 °F 51.3 °F 100% 29.95 in 1.5 mi East 11.5 mph 17.3 mph N/A   Overcast
9:35 AM 51.8 °F 51.8 °F 100% 29.96 in 2.0 mi ESE 12.7 mph 16.1 mph N/A   Overcast
9:55 AM 51.8 °F 51.8 °F 100% 29.96 in 1.5 mi East 11.5 mph 17.3 mph N/A   Overcast
10:15 AM 51.8 °F 51.8 °F 100% 29.97 in 1.5 mi ESE 8.1 mph - N/A Rain Light Rain
10:35 AM 52.0 °F 52.0 °F 100% 30.00 in 1.5 mi Calm Calm - N/A Rain Heavy Rain
10:55 AM 52.0 °F 52.0 °F 100% 29.99 in 1.5 mi East 9.2 mph - 0.13 in Rain Heavy Rain
11:15 AM 52.3 °F 52.3 °F 100% 29.96 in 4.0 mi East 5.8 mph - 0.12 in Rain Rain
11:35 AM 52.7 °F 52.7 °F 100% 29.95 in 10.0 mi East 10.4 mph - 0.14 in Rain Light Rain
11:55 AM 52.9 °F 52.7 °F 99% 29.95 in 10.0 mi East 8.1 mph - 0.14 in   Overcast
12:15 PM 53.1 °F 52.7 °F 99% 29.94 in 10.0 mi ESE 9.2 mph - N/A   Overcast
12:35 PM 53.2 °F 52.9 °F 99% 29.93 in 7.0 mi ESE 10.4 mph - 0.02 in Rain Light Rain
12:55 PM 53.2 °F 52.9 °F 99% 29.92 in 10.0 mi ESE 9.2 mph 16.1 mph 0.02 in Rain Light Rain
1:15 PM 53.8 °F 53.4 °F 99% 29.91 in 10.0 mi ESE 10.4 mph 19.6 mph N/A   Overcast
1:35 PM 54.3 °F 53.8 °F 98% 29.91 in 10.0 mi ESE 9.2 mph 18.4 mph N/A   Overcast
1:55 PM 54.1 °F 53.8 °F 99% 29.90 in 10.0 mi ESE 8.1 mph 19.6 mph N/A   Overcast
2:15 PM 54.5 °F 54.1 °F 99% 29.90 in 10.0 mi ESE 9.2 mph - N/A Rain Light Rain
2:35 PM 54.5 °F 53.8 °F 97% 29.91 in 10.0 mi ESE 10.4 mph - N/A   Overcast
2:55 PM 54.5 °F 54.0 °F 98% 29.90 in 10.0 mi East 5.8 mph - N/A   Overcast
3:15 PM 54.5 °F 54.0 °F 98% 29.90 in 10.0 mi East 6.9 mph - N/A   Overcast
3:35 PM 53.8 °F 53.6 °F 99% 29.89 in 7.0 mi East 8.1 mph - N/A Rain Light Rain
3:55 PM 53.6 °F 53.6 °F 100% 29.89 in 2.0 mi East 8.1 mph - 0.02 in Rain Rain
4:15 PM 53.6 °F 53.6 °F 100% 29.88 in 10.0 mi East 9.2 mph - 0.01 in   Overcast
4:35 PM 53.1 °F 52.9 °F 99% 29.87 in 3.0 mi East 11.5 mph - 0.01 in   Light Drizzle
4:55 PM 52.7 °F 52.7 °F 100% 29.88 in 2.0 mi East 11.5 mph 16.1 mph 0.01 in Rain Light Rain
5:15 PM 52.3 °F 52.3 °F 100% 29.87 in 2.0 mi East 11.5 mph 17.3 mph N/A   Light Drizzle
5:35 PM 52.0 °F 52.0 °F 100% 29.86 in 2.0 mi East 9.2 mph - N/A   Light Drizzle
5:55 PM 51.8 °F 51.8 °F 100% 29.86 in 2.5 mi East 12.7 mph 16.1 mph N/A   Light Drizzle
6:15 PM 51.4 °F 51.4 °F 100% 29.86 in 3.0 mi East 9.2 mph 18.4 mph N/A Rain Light Rain
6:35 PM 51.1 °F 51.1 °F 100% 29.86 in 2.5 mi ESE 9.2 mph 17.3 mph N/A   Light Drizzle
6:55 PM 50.9 °F 50.9 °F 100% 29.85 in 5.0 mi ESE 9.2 mph - N/A   Overcast
7:15 PM 50.9 °F 50.9 °F 100% 29.84 in 7.0 mi ESE 10.4 mph - N/A   Overcast
7:35 PM 50.9 °F 50.9 °F 100% 29.82 in 7.0 mi East 13.8 mph - N/A   Overcast
7:55 PM 50.7 °F 50.7 °F 100% 29.82 in 7.0 mi East 10.4 mph 18.4 mph N/A   Overcast
8:15 PM 50.9 °F 50.9 °F 100% 29.82 in 7.0 mi ESE 10.4 mph 17.3 mph N/A   Overcast
8:35 PM 50.5 °F 50.5 °F 100% 29.81 in 5.0 mi ESE 11.5 mph 17.3 mph N/A   Overcast
8:55 PM 50.9 °F 50.9 °F 100% 29.80 in 5.0 mi East 9.2 mph 17.3 mph N/A   Overcast
9:15 PM 50.9 °F 50.9 °F 100% 29.79 in 5.0 mi East 10.4 mph 18.4 mph N/A   Overcast
9:35 PM 50.5 °F 50.5 °F 100% 29.77 in 3.0 mi East 12.7 mph 20.7 mph N/A   Overcast
9:55 PM 50.7 °F 50.7 °F 100% 29.76 in 3.0 mi ESE 13.8 mph 18.4 mph N/A   Overcast
10:15 PM 50.9 °F 50.9 °F 100% 29.76 in 2.5 mi ESE 13.8 mph 18.4 mph N/A   Overcast
10:35 PM 50.9 °F 50.9 °F 100% 29.76 in 2.5 mi ESE 11.5 mph 17.3 mph N/A Rain Light Rain
10:55 PM 51.3 °F 51.3 °F 100% 29.75 in 3.0 mi East 11.5 mph 18.4 mph 0.01 in Rain Light Rain
11:15 PM 51.4 °F 51.4 °F 100% 29.75 in 7.0 mi ESE 10.4 mph 17.3 mph 0.02 in Rain Rain
11:35 PM 51.6 °F 51.6 °F 100% 29.72 in 5.0 mi East 10.4 mph - 0.10 in Rain Heavy Rain
11:55 PM 52.0 °F 52.0 °F 100% 29.70 in 7.0 mi East 11.5 mph - 0.13 in Rain Light Rain